GW6447 Weather Reports


time (UTC)temp
C
wind
direction
speed
KPH
gust
KPH
rain 1hr
cm
rain 24hr
cm
rain mn
cm
humidity
%
barometer
mb
20260503220451 18 172 16.1 30.6 0.00 0.00 0.00 42
20260503215948 18 229 14.5 25.7 0.00 0.00 0.00 42
20260503215445 18 256 16.1 24.1 0.00 0.00 0.00 42
20260503214942 18 202 12.9 30.6 0.00 0.00 0.00 43
20260503214440 18 176 20.9 29.0 0.00 0.00 0.00 43
20260503213937 18 198 17.7 27.4 0.00 0.00 0.00 43
20260503213436 18 190 11.3 16.1 0.00 0.00 0.00 44
20260503212932 18 223 12.9 24.1 0.00 0.00 0.00 42
20260503212429 18 190 17.7 27.4 0.00 0.00 0.00 42
20260503211927 18 220 19.3 25.7 0.00 0.00 0.00 43
20260503211423 18 215 17.7 30.6 0.00 0.00 0.00 43
20260503210919 18 218 22.5 27.4 0.00 0.00 0.00 42
20260503210416 18 193 14.5 30.6 0.00 0.00 0.00 43
20260503205916 18 196 20.9 27.4 0.00 0.00 0.00 42
20260503205414 18 248 14.5 29.0 0.00 0.00 0.00 44
20260503204909 17 193 20.9 35.4 0.00 0.00 0.00 42
20260503204407 17 211 17.7 30.6 0.00 0.00 0.00 43
20260503203904 17 188 16.1 25.7 0.00 0.00 0.00 46
20260503203401 18 205 17.7 30.6 0.00 0.00 0.00 45
20260503202858 17 218 11.3 16.1 0.00 0.00 0.00 47
20260503202356 17 216 20.9 30.6 0.00 0.00 0.00 46
20260503201855 17 222 16.1 25.7 0.00 0.00 0.00 45
20260503201351 17 217 12.9 20.9 0.00 0.00 0.00 48
20260503200849 17 157 25.7 30.6 0.00 0.00 0.00 47
20260503200344 17 254 17.7 37.0 0.00 0.00 0.00 46
20260503195842 17 219 20.9 35.4 0.00 0.00 0.00 47
20260503195338 17 207 14.5 24.1 0.00 0.00 0.00 45
20260503194836 17 196 16.1 41.8 0.00 0.00 0.00 46
20260503194331 17 188 12.9 29.0 0.00 0.00 0.00 45
20260503193828 17 226 20.9 29.0 0.00 0.00 0.00 44
20260503193324 17 224 14.5 37.0 0.00 0.00 0.00 45
20260503192820 17 190 22.5 37.0 0.00 0.00 0.00 43
20260503192315 17 246 17.7 29.0 0.00 0.00 0.00 44
20260503191812 17 207 24.1 37.0 0.00 0.00 0.00 42
20260503191309 17 215 22.5 33.8 0.00 0.00 0.00 41
20260503190806 17 216 19.3 29.0 0.00 0.00 0.00 41
20260503190303 17 243 25.7 38.6 0.00 0.00 0.00 40
20260503185800 17 248 24.1 30.6 0.00 0.00 0.00 44
20260503185255 17 202 16.1 27.4 0.00 0.00 0.00 44
20260503184755 17 218 24.1 40.2 0.00 0.00 0.00 43
20260503184252 16 214 11.3 25.7 0.00 0.00 0.00 46
20260503183748 17 227 20.9 29.0 0.00 0.00 0.00 47
20260503183246 16 195 12.9 17.7 0.00 0.00 0.00 48
20260503182743 16 204 22.5 29.0 0.00 0.00 0.00 47
20260503182242 16 204 12.9 25.7 0.00 0.00 0.00 47
20260503181738 16 209 12.9 27.4 0.00 0.00 0.00 49
20260503181235 16 177 19.3 27.4 0.00 0.00 0.00 49
20260503180731 16 190 16.1 35.4 0.00 0.00 0.00 49
20260503180230 16 215 17.7 27.4 0.00 0.00 0.00 49
20260503175726 16 213 20.9 25.7 0.00 0.00 0.00 49
20260503175224 15 184 22.5 33.8 0.00 0.00 0.00 49
20260503174720 15 194 17.7 29.0 0.00 0.00 0.00 50
20260503174218 15 200 22.5 27.4 0.00 0.00 0.00 52
20260503173713 15 193 24.1 37.0 0.00 0.00 0.00 51
20260503173209 15 194 20.9 30.6 0.00 0.00 0.00 51
20260503172706 15 258 27.4 30.6 0.00 0.00 0.00 51
20260503172203 14 250 22.5 29.0 0.00 0.00 0.00 53
20260503171700 14 202 19.3 35.4 0.00 0.00 0.00 52
20260503171157 14 198 24.1 30.6 0.00 0.00 0.00 51
20260503170654 14 212 19.3 27.4 0.00 0.00 0.00 52
20260503170151 13 204 11.3 29.0 0.00 0.00 0.00 53
20260503160112 11 232 9.7 24.1 0.00 0.00 0.00 70
20260503150542 12 209 12.9 17.7 0.00 0.00 0.00 56
20260503130932 11 227 11.3 17.7 0.00 0.00 0.00 56
20260503130430 11 199 12.9 22.5 0.00 0.00 0.00 56
20260503110332 8 231 8.0 16.1 0.00 0.00 0.00 54
20260503100258 8 219 4.8 12.9 0.00 0.00 0.00 54
20260503090217 7 199 8.0 12.9 0.00 0.00 0.00 55
20260503081144 8 221 8.0 11.3 0.00 0.00 0.00 54
20260503080640 8 205 4.8 9.7 0.00 0.00 0.00 54
20260503080137 8 227 4.8 11.3 0.00 0.00 0.00 54
20260503072614 8 188 9.7 14.5 0.00 0.00 0.00 53
20260503072111 8 217 6.4 9.7 0.00 0.00 0.00 53
20260503071608 8 223 9.7 12.9 0.00 0.00 0.00 53
20260503071105 8 216 4.8 11.3 0.00 0.00 0.00 53
20260503070601 8 197 4.8 12.9 0.00 0.00 0.00 53
20260503055020 8 214 6.4 11.3 0.00 0.00 0.00 52
20260503054516 8 226 6.4 9.7 0.00 0.00 0.00 52
20260503054014 8 206 9.7 12.9 0.00 0.00 0.00 52
20260503053512 8 226 8.0 11.3 0.00 0.00 0.00 51
20260503053009 8 226 8.0 11.3 0.00 0.00 0.00 51
20260503052506 8 212 6.4 11.3 0.00 0.00 0.00 51
20260503052001 8 222 6.4 11.3 0.00 0.00 0.00 51
20260503051457 8 212 8.0 17.7 0.00 0.00 0.00 51
20260503050955 8 232 4.8 12.9 0.00 0.00 0.00 51
20260503050450 8 227 6.4 12.9 0.00 0.00 0.00 51
20260503045948 8 207 8.0 11.3 0.00 0.00 0.00 51
20260503045446 8 191 6.4 9.7 0.00 0.00 0.00 50
20260503044942 8 213 8.0 11.3 0.00 0.00 0.00 50
20260503044439 8 188 9.7 12.9 0.00 0.00 0.00 50
20260503043937 8 218 6.4 11.3 0.00 0.00 0.00 50
20260503043433 8 218 6.4 12.9 0.00 0.00 0.00 50
20260503042929 8 193 6.4 11.3 0.00 0.00 0.00 51
20260503042426 8 192 6.4 12.9 0.00 0.00 0.00 51
20260503041923 8 195 6.4 12.9 0.00 0.00 0.00 51
20260503041420 8 197 3.2 9.7 0.00 0.00 0.00 51
20260503040917 8 214 6.4 12.9 0.00 0.00 0.00 51
20260503040414 8 202 4.8 11.3 0.00 0.00 0.00 51
20260503035912 8 198 6.4 6.4 0.00 0.00 0.00 51
20260503035408 8 207 8.0 11.3 0.00 0.00 0.00 52
20260503034906 8 194 6.4 9.7 0.00 0.00 0.00 52
20260503034403 8 204 6.4 6.4 0.00 0.00 0.00 52
20260503033900 8 204 3.2 9.7 0.00 0.00 0.00 53
20260503033358 7 197 3.2 4.8 0.00 0.00 0.00 55
20260503032855 7 189 1.6 3.2 0.00 0.00 0.00 57
20260503032354 7 185 3.2 4.8 0.00 0.00 0.00 57
20260503031851 7 175 3.2 4.8 0.00 0.00 0.00 57
20260503031349 7 173 1.6 1.6 0.00 0.00 0.00 57
20260503030845 7 186 1.6 3.2 0.00 0.00 0.00 58
20260503030341 7 169 0.0 0.0 0.00 0.00 0.00 57
20260503025838 7 166 0.0 0.0 0.00 0.00 0.00 57
20260503025336 7 166 0.0 0.0 0.00 0.00 0.00 56
20260503024833 7 167 0.0 0.0 0.00 0.00 0.00 56
20260503024329 7 165 0.0 1.6 0.00 0.00 0.00 56
20260503023826 6 165 0.0 0.0 0.00 0.00 0.00 56
20260503023323 6 165 0.0 0.0 0.00 0.00 0.00 54
20260503022820 7 165 0.0 0.0 0.00 0.00 0.00 53
20260503022320 7 165 0.0 0.0 0.00 0.00 0.00 54
20260503021816 7 165 0.0 0.0 0.00 0.00 0.00 52
20260503021313 8 165 0.0 0.0 0.00 0.00 0.00 51
20260503020811 8 165 0.0 1.6 0.00 0.00 0.00 50
20260503020308 8 178 0.0 0.0 0.00 0.00 0.00 48
20260503015804 8 178 0.0 0.0 0.00 0.00 0.00 46
20260503015302 9 171 1.6 1.6 0.00 0.00 0.00 47
20260503014757 9 180 1.6 3.2 0.00 0.00 0.00 46
20260503014255 9 199 3.2 3.2 0.00 0.00 0.00 45
20260503013752 10 211 3.2 4.8 0.00 0.00 0.00 44
20260503013249 10 185 1.6 3.2 0.00 0.00 0.00 44
20260503012746 10 184 1.6 4.8 0.00 0.00 0.00 43
20260503012244 10 182 1.6 4.8 0.00 0.00 0.00 42
20260503011740 10 189 3.2 4.8 0.00 0.00 0.00 42
20260503011238 10 198 1.6 4.8 0.00 0.00 0.00 41
20260503010733 11 192 0.0 3.2 0.00 0.00 0.00 41
20260503010231 11 198 4.8 4.8 0.00 0.00 0.00 40
20260503005728 11 200 4.8 6.4 0.00 0.00 0.00 40
20260503005225 11 206 4.8 4.8 0.00 0.00 0.00 39
20260503004721 11 210 6.4 9.7 0.00 0.00 0.00 39
20260503004220 11 222 4.8 9.7 0.00 0.00 0.00 39
20260503003717 11 221 6.4 9.7 0.00 0.00 0.00 38
20260503003214 11 198 4.8 9.7 0.00 0.00 0.00 38
20260503002710 12 211 3.2 11.3 0.00 0.00 0.00 38
20260503002207 12 206 4.8 9.7 0.00 0.00 0.00 38
20260503001703 12 200 4.8 6.4 0.00 0.00 0.00 38
20260503001200 12 215 6.4 12.9 0.00 0.00 0.00 38
20260503000658 12 264 9.7 12.9 0.00 0.00 0.00 38
20260503000155 12 233 4.8 9.7 0.00 0.00 0.00 38
20260502235651 12 244 8.0 16.1 0.00 0.00 0.00 37
20260502235149 12 228 9.7 14.5 0.00 0.00 0.00 37
20260502234645 12 226 8.0 12.9 0.00 0.00 0.00 37
20260502234143 12 264 4.8 12.9 0.00 0.00 0.00 37
20260502233639 12 228 8.0 11.3 0.00 0.00 0.00 37
20260502233135 12 195 3.2 11.3 0.00 0.00 0.00 37
20260502232631 12 206 4.8 11.3 0.00 0.00 0.00 37
20260502232129 12 227 8.0 12.9 0.00 0.00 0.00 36
20260502231625 12 226 6.4 11.3 0.00 0.00 0.00 36
20260502231123 12 232 4.8 12.9 0.00 0.00 0.00 35
20260502230621 12 231 6.4 11.3 0.00 0.00 0.00 36
20260502230120 12 252 6.4 14.5 0.00 0.00 0.00 35
20260502225615 13 225 4.8 12.9 0.00 0.00 0.00 37
20260502225112 13 226 6.4 14.5 0.00 0.00 0.00 38
20260502224608 12 185 9.7 16.1 0.00 0.00 0.00 37
20260502224105 12 201 4.8 11.3 0.00 0.00 0.00 36
20260502223603 12 230 11.3 14.5 0.00 0.00 0.00 36
20260502223102 12 287 11.3 16.1 0.00 0.00 0.00 36
20260502222558 12 298 6.4 14.5 0.00 0.00 0.00 36
20260502222054 13 223 9.7 12.9 0.00 0.00 0.00 36
20260502221550 13 240 11.3 14.5 0.00 0.00 0.00 36
20260502221048 12 224 9.7 14.5 0.00 0.00 0.00 36